Monument Pass, CO

7:25 PM MDT on May 25, 2017 (GMT -0600)
Monument Pass

Weather History for KMNH - January, 2012

Change the Weather History Date:

Tuesday, January 17, 2012

  Actual Average Record
Temperature  
Mean Temperature 14 °F -  
Max Temperature 26 °F - 48 °F (2009)
Min Temperature 3 °F - 3 °F (2012)
Degree Days  
Heating Degree Days 50    
Month to date heating degree days  
Cooling Degree Days 0    
Month to date cooling degree days  
Moisture  
Dew Point 9 °F    
Average Humidity 77    
Maximum Humidity 92    
Minimum Humidity 37    
Precipitation  
Precipitation 0.01 in - 0.01 in (2012)
Sea Level Pressure  
Sea Level Pressure 29.99 in    
Wind  
Wind Speed 7 mph (SE)    
Max Wind Speed 16 mph    
Max Gust Speed 21 mph    
Visibility 8 miles    
Events Snow    
T = Trace of Precipitation, MM = Missing Value Source: NWS Daily Summary

Daily Weather History Graph

Daily Weather History Graph

Search for Another Location

Airport or City:

Trip Planner

Search our weather history database for the weather conditions in past years. The results will help you decide how hot, cold, wet, or windy it might be!

Date:

Astronomy

Jan. 17, 2012 Rise Set
Actual Time 7:15 AM MST 5:01 PM MST
Civil Twilight 6:46 AM MST 5:30 PM MST
Nautical Twilight 6:13 AM MST 6:03 PM MST
Astronomical Twilight 5:41 AM MST 6:35 PM MST
Moon 1:38 AM MST (1/17) 11:56 AM MST (1/17)
Length of Visible Light 10h 44m
Length of Day
9h 45m
Waning Crescent, 34% of the Moon is Illuminated
Jan 17
Waning Crescent
Jan 23
New
Jan 30
First Quarter
Feb 7
Full
Feb 14
Last Quarter

Hourly Weather History & Observations

Time (MST) Temp. Windchill Dew Point Humidity Pressure Visibility Wind Dir Wind Speed Gust Speed Precip Events Conditions
12:18 AM 12.2 °F 4.3 °F 10.4 °F 92% 29.91 in 2.5 mi ENE 4.6 mph - N/A Snow Light Snow
12:39 AM 12.2 °F 4.3 °F 10.4 °F 92% 29.92 in 2.5 mi ENE 4.6 mph - N/A Snow Light Snow
12:57 AM 12.2 °F 2.9 °F 10.4 °F 92% 29.92 in 4.0 mi NE 5.8 mph - N/A Snow Light Snow
1:18 AM 12.2 °F 6.1 °F 10.4 °F 92% 29.93 in 1.8 mi ENE 3.5 mph - N/A Snow Light Snow
1:39 AM 12.2 °F 4.3 °F 10.4 °F 92% 29.95 in 2.5 mi ESE 4.6 mph - N/A Snow Light Snow
1:59 AM 12.2 °F 6.1 °F 10.4 °F 92% 29.96 in 1.8 mi SE 3.5 mph - N/A Snow Light Snow
2:19 AM 12.2 °F 4.3 °F 10.4 °F 92% 29.97 in 1.5 mi ESE 4.6 mph - N/A Snow Light Snow
2:38 AM 12.2 °F 6.1 °F 10.4 °F 92% 29.97 in 4.0 mi ENE 3.5 mph - N/A Snow Light Snow
2:58 AM 12.2 °F 6.1 °F 10.4 °F 92% 29.97 in 5.0 mi ENE 3.5 mph - N/A Snow Light Snow
3:18 AM 10.4 °F 4.0 °F 8.6 °F 92% 29.97 in 7.0 mi NE 3.5 mph - N/A Snow Light Snow
3:37 AM 10.4 °F 4.0 °F 8.6 °F 92% 29.97 in 4.0 mi East 3.5 mph - N/A Snow Light Snow
3:58 AM 8.6 °F 2.0 °F 6.8 °F 92% 29.97 in 5.0 mi ESE 3.5 mph - N/A Snow Light Snow
4:37 AM 10.4 °F 4.0 °F 8.6 °F 92% 29.98 in 10.0 mi SE 3.5 mph - N/A   Overcast
4:58 AM 10.4 °F 0.8 °F 8.6 °F 92% 29.99 in 10.0 mi East 5.8 mph - N/A   Overcast
5:18 AM 10.4 °F 0.8 °F 5.0 °F 79% 29.99 in 10.0 mi East 5.8 mph - N/A Snow Light Snow
5:38 AM 8.6 °F -1.3 °F 5.0 °F 85% 29.99 in 10.0 mi SE 5.8 mph - N/A Snow Light Snow
5:58 AM 6.8 °F -2.0 °F 3.2 °F 85% 29.99 in 7.0 mi SSE 4.6 mph - N/A Snow Light Snow
6:18 AM 5.0 °F -5.6 °F 3.2 °F 92% 30.00 in 10.0 mi SE 5.8 mph - N/A Snow Light Snow
6:38 AM 6.8 °F -4.8 °F 3.2 °F 85% 30.00 in 10.0 mi ESE 6.9 mph - N/A Snow Light Snow
6:58 AM 6.8 °F -2.0 °F 3.2 °F 85% 30.01 in 10.0 mi ESE 4.6 mph - N/A Snow Light Snow
7:18 AM 5.0 °F -4.1 °F 1.4 °F 85% 30.01 in 7.0 mi SE 4.6 mph - N/A Snow Light Snow
7:38 AM 3.2 °F -10.3 °F 1.4 °F 92% 30.01 in 4.0 mi SSW 8.1 mph - N/A Snow Light Snow
7:57 AM 12.2 °F -1.0 °F 10.4 °F 92% 30.01 in 10.0 mi SSW 10.4 mph - N/A Snow Light Snow
8:18 AM 15.8 °F 1.4 °F 12.2 °F 86% 30.02 in 7.0 mi South 13.8 mph - N/A Snow Light Snow
8:38 AM 17.6 °F 3.2 °F 12.2 °F 79% 30.02 in 10.0 mi South 15.0 mph - N/A Snow Light Snow
8:57 AM 17.6 °F 3.7 °F 12.2 °F 79% 30.02 in 10.0 mi South 13.8 mph - N/A   Clear
9:18 AM 17.6 °F 4.3 °F 12.2 °F 79% 30.03 in 10.0 mi South 12.7 mph - N/A   Clear
9:38 AM 19.4 °F 5.0 °F 12.2 °F 74% 30.03 in 10.0 mi South 16.1 mph - N/A   Clear
9:58 AM 19.4 °F 5.0 °F 12.2 °F 74% 30.03 in 10.0 mi South 16.1 mph - N/A   Clear
10:37 AM 19.4 °F 5.0 °F 12.2 °F 74% 30.03 in 10.0 mi South 16.1 mph 20.7 mph N/A   Clear
10:58 AM 19.4 °F 6.0 °F 12.2 °F 74% 30.03 in 10.0 mi South 13.8 mph - N/A   Clear
11:18 AM 21.2 °F 7.8 °F 12.2 °F 68% 30.02 in 10.0 mi South 15.0 mph - N/A   Clear
11:38 AM 21.2 °F 10.9 °F 14.0 °F 74% 30.01 in 10.0 mi South 9.2 mph - N/A   Clear
11:58 AM 23.0 °F 15.8 °F 14.0 °F 68% 30.00 in 10.0 mi SSE 5.8 mph 19.6 mph N/A   Clear
12:17 PM 23.0 °F 17.0 °F 10.4 °F 59% 30.00 in 10.0 mi East 4.6 mph - N/A   Clear
12:37 PM 26.6 °F 20.0 °F 5.0 °F 40% 29.99 in 10.0 mi North 5.8 mph - N/A   Clear
12:58 PM 26.6 °F 20.0 °F 3.2 °F 37% 29.99 in 10.0 mi NNW 5.8 mph - N/A   Clear
1:18 PM 24.8 °F 20.5 °F 10.4 °F 54% 29.97 in 10.0 mi ESE 3.5 mph - 0.01 in   Clear
1:38 PM 24.8 °F - 10.4 °F 54% 29.97 in 10.0 mi Calm Calm - 0.01 in   Clear
2:38 PM 26.6 °F 20.0 °F 14.0 °F 59% 29.98 in 10.0 mi SSE 5.8 mph - N/A   Clear
2:58 PM 26.6 °F 16.8 °F 14.0 °F 59% 29.98 in 10.0 mi South 10.4 mph - N/A   Clear
3:17 PM 24.8 °F 16.9 °F 14.0 °F 64% 29.99 in 10.0 mi SSE 6.9 mph - N/A   Clear
3:58 PM 21.2 °F 11.7 °F 12.2 °F 68% 30.00 in 10.0 mi SE 8.1 mph - N/A   Clear
4:18 PM 21.2 °F 11.7 °F 10.4 °F 63% 29.99 in 10.0 mi SSE 8.1 mph - N/A   Clear
4:38 PM 17.6 °F 6.4 °F 8.6 °F 68% 29.99 in 10.0 mi SE 9.2 mph - N/A   Clear
4:58 PM 14.0 °F 2.0 °F 8.6 °F 79% 29.99 in 10.0 mi SSE 9.2 mph - N/A   Clear
5:18 PM 14.0 °F -2.0 °F 8.6 °F 79% 29.99 in 10.0 mi South 16.1 mph - N/A   Clear
5:58 PM 12.2 °F -0.2 °F 5.0 °F 73% 29.99 in 10.0 mi SSE 9.2 mph - N/A   Clear
6:18 PM 12.2 °F -3.7 °F 6.8 °F 79% 29.99 in 10.0 mi South 15.0 mph - N/A   Clear
6:38 PM 12.2 °F -3.7 °F 6.8 °F 79% 29.98 in 10.0 mi South 15.0 mph - N/A   Clear
6:58 PM 12.2 °F -0.2 °F 5.0 °F 73% 29.99 in 10.0 mi SSW 9.2 mph - N/A   Clear
7:18 PM 14.0 °F 2.0 °F 3.2 °F 62% 29.99 in 10.0 mi SSW 9.2 mph - N/A   Clear
7:37 PM 14.0 °F -0.8 °F 3.2 °F 62% 29.99 in 10.0 mi SW 13.8 mph - N/A   Clear
7:58 PM 14.0 °F -0.2 °F 3.2 °F 62% 29.97 in 10.0 mi SSW 12.7 mph - N/A   Clear
8:18 PM 14.0 °F 1.2 °F 1.4 °F 57% 29.96 in 10.0 mi SSW 10.4 mph - N/A   Clear
8:37 PM 15.8 °F 7.2 °F -0.4 °F 49% 29.96 in 10.0 mi SSW 5.8 mph - N/A   Clear
8:58 PM 10.4 °F 0.8 °F -0.4 °F 62% 29.95 in 10.0 mi South 5.8 mph - N/A   Clear
9:18 PM 17.6 °F 5.7 °F -0.4 °F 45% 29.95 in 10.0 mi WSW 10.4 mph - N/A   Clear
9:38 PM 19.4 °F 6.6 °F -0.4 °F 42% 29.94 in 10.0 mi WSW 12.7 mph 17.3 mph N/A   Clear
9:58 PM 21.2 °F 7.8 °F -0.4 °F 39% 29.94 in 10.0 mi WSW 15.0 mph 26.5 mph N/A   Clear
10:18 PM 19.4 °F 5.5 °F -0.4 °F 42% 29.94 in 10.0 mi WSW 15.0 mph 18.4 mph N/A   Clear
10:37 PM 21.2 °F 8.3 °F -0.4 °F 39% 29.94 in 10.0 mi West 13.8 mph - N/A   Clear
10:58 PM 21.2 °F 10.1 °F -0.4 °F 39% 29.96 in 10.0 mi West 10.4 mph - N/A   Clear
11:18 PM 17.6 °F 10.7 °F -2.2 °F 42% 29.97 in 10.0 mi WNW 4.6 mph - N/A   Clear
11:38 PM 15.8 °F 5.1 °F -2.2 °F 45% 29.97 in 10.0 mi West 8.1 mph - N/A   Clear
11:57 PM 19.4 °F 8.6 °F -2.2 °F 39% 29.96 in 10.0 mi WSW 9.2 mph - N/A   Clear